Flag for U.S.A. Weather past 2 weeks in Cincinnati, Ohio, U.S.A.

Now
35 °F

Overcast.


Feels Like: 30 °F
Forecast: 33 / 43 °F
Wind: 6 mph from Northwest

Location: Cincinnati Municipal Airport Lunken Field

Current Time: Dec 28, 2014 at 12:29:13 PM

Latest Report: Dec 28, 2014 at 11:53 AM


Visibility: 10 mi

Pressure: 30.18 "Hg

Humidity: 85%

Dew point: 31 °F

Location of CincinnatiLocation

Historic Weather in Cincinnati — Graph

°F

Cincinnati temperature yesterday

Maximum temperature yesterday: 52 °F (at 12:53 PM)
Minimum temperature yesterday: 32 °F (at 5:53 AM)
Average temperature yesterday: 43 °F

Past Weeks' High & Low Weather Summary

 TemperatureHumidityPressure
High55 °F (Dec 23, 3:00 PM)100% (Dec 22, 11:53 PM)30.37 "Hg (Dec 22, 11:53 PM)
Low22 °F (Dec 19, 3:53 AM)55% (Dec 26, 3:53 PM)29.37 "Hg (Dec 24, 1:53 PM)
Average38 °F84%30.10 "Hg
* Reported Dec 13 10:53 AM — Dec 28 10:53 AM, Cincinnati, Weather by CustomWeather, © 2014

Note: Actual official high and low records may vary slightly from our data, if they occured in-between our weather recording intervals... More about our weather records

Advertising

Cincinnati weather history for previous 24 hours

 ConditionsComfort  
Time TempWeatherWind HumidityBarometerVisibility
10:53 AM
Dec 28
35 °FOvercast.9 mph88%30.18 "Hg8 mi
9:53 AM36 °FOvercast.7 mph89%30.18 "Hg7 mi
8:53 AM36 °FOvercast.9 mph92%30.15 "Hg10 mi
7:53 AM36 °FFog.8 mph97%30.14 "Hg6 mi
6:53 AM36 °FFog.6 mph97%30.14 "Hg4 mi
5:53 AM38 °FOvercast.5 mph90%30.11 "Hg10 mi
4:53 AM38 °FMostly cloudy.8 mph97%30.11 "Hg8 mi
3:53 AM40 °FMostly cloudy.No wind97%30.09 "Hg9 mi
2:53 AM43 °FOvercast.9 mph97%30.07 "Hg10 mi
1:53 AM45 °FLight rain. Mostly cloudy.6 mph100%30.01 "Hg10 mi
12:53 AM46 °FLight rain. Mostly cloudy.No wind100%30.05 "Hg8 mi
11:53 PM
Dec 27
47 °FLight rain. Fog.3 mph100%30.08 "Hg5 mi
10:53 PM47 °FLight rain. Fog.6 mph100%30.09 "Hg4 mi
9:58 PM47 °FRain. Fog.8 mph100%30.08 "Hg2 mi
8:53 PM47 °FLow clouds.5 mph100%30.09 "Hg10 mi
7:53 PM48 °FLight rain. Fog.7 mph100%30.10 "Hg6 mi
6:53 PM48 °FRain. Fog.7 mph100%30.11 "Hg3 mi
5:53 PM48 °FLight rain. Fog.7 mph100%30.14 "Hg5 mi
4:53 PM49 °FOvercast.7 mph93%30.12 "Hg10 mi
3:53 PM50 °FOvercast.9 mph86%30.12 "Hg10 mi
2:53 PM50 °FOvercast.12 mph86%30.12 "Hg10 mi
1:53 PM50 °FOvercast.13 mph83%30.14 "Hg10 mi
12:53 PM52 °FOvercast.14 mph75%30.15 "Hg10 mi
Weather by CustomWeather, © 2014

See weather overviewHow to use our weather pages